Volver al catálogo

SL-16 DEB

ActivoLEO
NORAD 22805·DEBRIS·🇷🇺 Russia

Lanzado Sep 16, 1993 desde Baikonur Cosmodrome

Loading…

Próximos Pases (próximas 24 horas)

TLE

ActualizadoSource: Space-Track

Época: Sep 14, 2026, 09:09 UTC

1 22805U 93059D   26257.38192678  .00000026  00000-0  65033-4 0  9998
2 22805  70.9721  54.1217 0210465  77.2957 305.7041 13.70752251649585

Sigue SL-16 DEB en tiempo real con AllMySat

Download on the App Store